Weather History for KGLD - May, 2013

Change the Weather History Date:

Thursday, May 23, 2013

  Actual Average Record
Temperature  
Mean Temperature 59 °F 62 °F  
Max Temperature 71 °F 75 °F 96 °F (2000)
Min Temperature 47 °F 48 °F 36 °F (1930)
Degree Days  
Heating Degree Days 6 5  
Month to date heating degree days 202 180  
Since 1 July heating degree days 5952 5835  
Cooling Degree Days 0 2  
Month to date cooling degree days 47 23  
Year to date cooling degree days 47 27  
Growing Degree Days 8 (Base 50)    
Moisture  
Dew Point 48 °F    
Average Humidity 69    
Maximum Humidity 93    
Minimum Humidity 44    
Precipitation  
Precipitation T in 0.11 in 3.00 in (1909)
Month to date precipitation 0.71 2.04  
Year to date precipitation 3.80 5.57  
Snow  
Snow 0.00 in 0.00 in - ()
Month to date snowfall 3.5 0.5  
Since 1 July snowfall 59.2 35.5  
Snow Depth 0.00 in    
Sea Level Pressure  
Sea Level Pressure 30.09 in    
Wind  
Wind Speed 16 mph (ESE)    
Max Wind Speed 29 mph    
Max Gust Speed 36 mph    
Visibility 10 miles    
Events Rain    
T = Trace of Precipitation, MM = Missing Value Source: NWS Daily Summary

Daily Weather History Graph

Daily Weather History Graph

Search for Another Location

Airport or City:

Trip Planner

Search our weather history database for the weather conditions in past years. The results will help you decide how hot, cold, wet, or windy it might be!

Date:

Astronomy

May. 23, 2013 Rise Set
Actual Time 5:26 AM MDT 8:00 PM MDT
Civil Twilight 4:55 AM MDT 8:32 PM MDT
Nautical Twilight 4:17 AM MDT 9:10 PM MDT
Astronomical Twilight 3:33 AM MDT 9:54 PM MDT
Moon 6:36 PM MDT (5/23) 4:12 AM MDT (5/23)
Length of Visible Light 15h 36m
Length of Day
14h 34m
Waxing Gibbous, 97% of the Moon is Illuminated
May 23
Waxing Gibbous
May 24
Full
May 31
Last Quarter
Jun 8
New
Jun 16
First Quarter

Hourly Weather History & Observations

Time (MDT) Temp. Dew Point Humidity Pressure Visibility Wind Dir Wind Speed Gust Speed Precip Events Conditions
12:53 AM 52.0 °F 45.0 °F 77% 30.04 in 10.0 mi ENE 15.0 mph - N/A   Mostly Cloudy
1:39 AM 50.0 °F 46.4 °F 87% 30.12 in 10.0 mi ENE 17.3 mph 24.2 mph 0.00 in   Overcast
1:53 AM 50.0 °F 46.0 °F 86% 30.04 in 10.0 mi ENE 13.8 mph - 0.00 in   Mostly Cloudy
2:53 AM 48.9 °F 45.0 °F 86% 30.08 in 10.0 mi ENE 12.7 mph - 0.00 in Rain Light Rain
3:53 AM 48.0 °F 45.0 °F 89% 30.08 in 10.0 mi ENE 11.5 mph - 0.00 in   Overcast
4:53 AM 46.9 °F 45.0 °F 93% 30.09 in 10.0 mi NE 12.7 mph - N/A   Overcast
5:53 AM 46.9 °F 45.0 °F 93% 30.08 in 10.0 mi East 15.0 mph - N/A   Overcast
6:53 AM 48.0 °F 45.0 °F 89% 30.06 in 10.0 mi ESE 15.0 mph - N/A   Mostly Cloudy
7:12 AM 48.2 °F 44.6 °F 87% 30.13 in 10.0 mi SE 12.7 mph - N/A   Partly Cloudy
7:53 AM 52.0 °F 45.0 °F 77% 30.09 in 10.0 mi ESE 6.9 mph - N/A   Clear
8:20 AM 53.6 °F 46.4 °F 77% 30.17 in 10.0 mi NE 9.2 mph - N/A   Mostly Cloudy
8:53 AM 52.0 °F 46.0 °F 80% 30.13 in 10.0 mi NE 12.7 mph - N/A   Overcast
9:53 AM 52.0 °F 45.0 °F 77% 30.14 in 10.0 mi ENE 11.5 mph - N/A   Overcast
10:53 AM 55.0 °F 45.0 °F 69% 30.14 in 10.0 mi East 8.1 mph - N/A   Overcast
11:17 AM 55.4 °F 46.4 °F 72% 30.19 in 10.0 mi NE 10.4 mph - N/A   Mostly Cloudy
11:53 AM 61.0 °F 46.9 °F 60% 30.13 in 10.0 mi ENE 11.5 mph - N/A   Partly Cloudy
12:53 PM 64.0 °F 46.9 °F 54% 30.11 in 10.0 mi East 11.5 mph 20.7 mph N/A   Clear
1:53 PM 69.1 °F 46.9 °F 45% 30.06 in 10.0 mi SE 19.6 mph 27.6 mph N/A   Overcast
2:53 PM 69.1 °F 46.9 °F 45% 30.06 in 10.0 mi SE 16.1 mph 26.5 mph N/A   Overcast
3:53 PM 70.0 °F 48.0 °F 46% 30.04 in 10.0 mi SE 25.3 mph 32.2 mph N/A   Mostly Cloudy
4:53 PM 69.1 °F 48.0 °F 47% 30.04 in 10.0 mi SE 20.7 mph 32.2 mph N/A   Scattered Clouds
5:53 PM 66.0 °F 48.0 °F 52% 30.03 in 10.0 mi SE 19.6 mph 29.9 mph N/A   Overcast
6:53 PM 64.9 °F 48.0 °F 54% 30.04 in 10.0 mi SE 18.4 mph 28.8 mph N/A   Overcast
7:53 PM 64.0 °F 48.9 °F 58% 30.04 in 10.0 mi SSE 17.3 mph 29.9 mph N/A   Overcast
8:22 PM 62.6 °F 51.8 °F 68% 30.09 in 10.0 mi SE 16.1 mph 25.3 mph N/A   Overcast
8:53 PM 62.1 °F 51.1 °F 67% 30.05 in 10.0 mi SSE 17.3 mph 25.3 mph N/A   Overcast
9:53 PM 62.1 °F 52.0 °F 70% 30.07 in 10.0 mi SE 19.6 mph 27.6 mph N/A   Overcast
10:19 PM 60.8 °F 51.8 °F 72% 30.13 in 10.0 mi SE 19.6 mph - N/A   Overcast
10:53 PM 60.1 °F 52.0 °F 75% 30.08 in 10.0 mi SSE 18.4 mph 28.8 mph N/A   Overcast
11:20 PM 60.8 °F 51.8 °F 72% 30.13 in 10.0 mi SSE 18.4 mph 27.6 mph N/A   Overcast
11:53 PM 60.1 °F 52.0 °F 75% 30.06 in 10.0 mi SSE 23.0 mph 29.9 mph N/A   Overcast